Overview Statistics Trail Chart Weather Telemetry Raw packets
 

This is the latest recevied weather packets stored in our database for station/object GW4003. If no packets are shown the sender has not sent any weather packets the latest 10 day(s).

<< 63 64 65 66 67 68 69 >>
Time Temp. Humidity Pressure Rain* Wind** Luminosity Snow
1788195509 25° C 35% 1023.2 hPa 0 mm - - -
1788195205 25° C 35% 1023.2 hPa 0 mm - - -
1788194901 25° C 36% 1023.2 hPa 0 mm - - -
1788194597 25° C 35% 1023.2 hPa 0 mm - - -
1788194294 25° C 36% 1023.2 hPa 0 mm - - -
1788193990 24.44° C 36% 1023.2 hPa 0 mm - - -
1788193687 24.44° C 36% 1023.1 hPa 0 mm - - -
1788193383 24.44° C 38% 1022.9 hPa 0 mm - - -
1788193079 24.44° C 39% 1023 hPa 0 mm - - -
1788192779 24.44° C 40% 1023 hPa 0 mm - - -
1788192472 24.44° C 39% 1022.9 hPa 0 mm - - -
1788192168 24.44° C 40% 1022.8 hPa 0 mm - - -
1788191865 24.44° C 43% 1022.7 hPa 0 mm - - -
1788191561 23.89° C 46% 1022.8 hPa 0 mm - - -
1788191257 23.89° C 44% 1022.8 hPa 0 mm - - -
1788190954 23.89° C 42% 1022.8 hPa 0 mm - - -
1788190650 23.33° C 44% 1022.7 hPa 0 mm - - -
1788190347 23.33° C 43% 1022.7 hPa 0 mm - - -
1788190042 23.33° C 45% 1022.6 hPa 0 mm - - -
1788189739 23.33° C 44% 1022.7 hPa 0 mm - - -
1788189436 22.78° C 46% 1022.7 hPa 0 mm - - -
1788189132 22.78° C 48% 1022.6 hPa 0 mm - - -
1788188828 22.78° C 48% 1022.6 hPa 0 mm - - -
1788188523 22.78° C 49% 1022.7 hPa 0 mm - - -
1788188220 22.22° C 52% 1022.7 hPa 0 mm - - -

* Rain latest hour (hover to see other rain measurements)
** Current wind speed in m/s (hover to see current wind gust speed)